www.pogodaiklimat.ru

Погода и климат >> Архив погоды >> Италия >> Брешиа


ПОГОДА в Брешиа

  • Прогноз погоды в Брешиа
  • Монитор погоды в Брешиа

АРХИВ ПОГОДЫ в Брешиа

Время (UTC), дата Ветер
(напр.,м/с)
 
Видим.   Явления Облачность Т
(С)
Тd
(С)
f
(%)
Тe
(С)
Тes
(С)
Комфортность P
(гПа)
Po
(гПа)
Тmin
(С)
Tmax
(С)
R
(мм)
R24
(мм)
S
(см)
16 11.09 ЮЗ 1 10 км ясно +25.4 +13.0 46 +27 +29 жарко 1019.7 1008.5
17 11.09 Ю 1 10 км ясно +25.2 +12.8 46 +27 +27 жарко 1020.0 1008.8
18 11.09 штиль 0 10 км 3/0
[Ac trans Ci fib]
+23.6 +13.5 53 +26 +26 жарко 1020.4 1009.1 +25.9
19 11.09 ЮЗ 1 10 км 4/0
[Ac trans]
+22.3 +15.9 67 +26 +26 жарко 1021.5 1010.2
20 11.09 С 2 10 км 4/0
[Ac trans]
+20.0 +15.9 77 +23 +23 комфорт 1022.2 1010.8
21 11.09 СВ 1 10 км ясно +19.4 +16.3 82 +22 +22 комфорт 1023.1 1011.6
22 11.09 С 2 10 км ясно +19.0 +16.2 84 +21 +21 комфорт 1023.3 1011.8
23 11.09 С 2 10 км ясно +18.9 +16.1 84 +21 +21 комфорт 1023.3 1011.8
00 12.09 С 2 10 км ясно +18.0 +15.4 85 +19 +19 1023.9 1012.4
01 12.09 В 1 10 км ясно +18.0 +15.6 86 +20 +20 1023.9 1012.4
02 12.09 СВ 1 10 км ясно +17.4 +15.4 88 +18 +18 1024.2 1012.6
03 12.09 С 1 10 км ясно +17.7 +15.3 86 +19 +19 1024.5 1013.0
04 12.09 СЗ 1 10 км ясно +17.0 +14.7 86 +19 +19 1024.6 1013.0
05 12.09 С 1 10 км ясно +17.0 +14.8 87 +19 +19 1025.5 1013.9
06 12.09 З 1 10 км ясно +17.0 +14.8 87 +19 +19 1026.0 1014.4 +16.2
07 12.09 ЮЗ 1 10 км ясно +19.0 +15.7 81 +21 +24 комфорт 1026.1 1014.6
08 12.09 З 1 10 км ясно +21.0 +15.6 71 +25 +32 комфорт 1027.1 1015.7
09 12.09 ЮЗ 1 10 км ясно +23.0 +14.8 60 +27 +36 душно 1027.8 1016.4
10 12.09 З 2 10 км ясно +24.8 +14.9 54 +28 +39 жарко 1028.1 1016.8
11 12.09 З 2 10 км ясно +25.1 +14.9 53 +28 +41 жарко 1028.1 1016.8
12 12.09 С 1 10 км ясно +26.0 +14.8 50 +29 +42 душно 1028.1 1016.8
13 12.09 ЮЗ 1 10 км ясно +26.9 +14.7 47 +29 +41 жарко 1027.9 1016.7
14 12.09 ЮЗ 2 10 км ясно +27.2 +13.9 44 +29 +37 жарко 1027.6 1016.4
15 12.09 ЮЗ 1 10 км ясно +27.2 +14.3 45 +29 +34 жарко 1027.3 1016.1
16 12.09 ЮЗ 1 10 км ясно +27.0 +14.4 46 +29 +31 жарко 1027.2 1016.0
17 12.09 ЮЗ 1 10 км ясно +26.9 +14.3 46 +29 +29 жарко 1027.1 1015.9
18 12.09 Ю 1 10 км ясно +24.8 +15.2 55 +28 +28 жарко 1027.3 1016.0 +27.4
19 12.09 СВ 1 10 км ясно +22.2 +16.5 70 +26 +26 душно 1027.4 1016.0
20 12.09 СВ 1 10 км ясно +20.4 +16.4 78 +25 +25 комфорт 1027.7 1016.2
21 12.09 В 2 10 км ясно +20.4 +17.4 83 +24 +24 комфорт 1027.9 1016.4
22 12.09 СВ 1 10 км ясно +20.0 +17.0 83 +24 +24 комфорт 1028.0 1016.5
23 12.09 СВ 3 10 км ясно +20.0 +17.0 83 +23 +23 комфорт 1028.1 1016.6
00 13.09 СВ 2 10 км ясно +19.4 +16.6 84 +22 +22 комфорт 1028.2 1016.6
01 13.09 СВ 1 10 км ясно +19.2 +16.6 85 +22 +22 комфорт 1028.2 1016.6
02 13.09 В 1 10 км ясно +19.2 +16.6 85 +22 +22 комфорт 1028.2 1016.6
03 13.09 СВ 1 10 км ясно +18.4 +16.0 86 +20 +20 1028.6 1017.0
04 13.09 С 2 10 км ясно +18.4 +16.2 87 +20 +20 1028.8 1017.2
05 13.09 СВ 3 8000 м дымка ясно +18.4 +16.0 86 +19 +19 1029.0 1017.4
06 13.09 СВ 2 10 км ясно +18.8 +16.2 85 +21 +21 комфорт 1029.4 1017.8 +17.7
07 13.09 В 3 10 км ясно +22.0 +16.3 70 +26 +28 душно 1029.4 1018.0
08 13.09 В 3 10 км ясно +23.8 +16.3 63 +27 +31 жарко 1030.2 1018.8
09 13.09 ЮВ 2 10 км ясно +25.0 +15.6 56 +28 +36 жарко 1030.1 1018.8
10 13.09 В 1 10 км ясно +26.2 +15.9 53 +29 +42 жарко 1029.9 1018.6
11 13.09 В 2 10 км ясно +26.4 +15.5 51 +29 +42 жарко 1029.1 1017.8
12 13.09 ЮЗ 1 10 км ясно +27.0 +14.4 46 +29 +43 жарко 1028.4 1017.2
13 13.09 Ю 2 10 км ясно +27.8 +14.8 45 +30 +40 жарко 1028.1 1016.9
14 13.09 З 2 10 км ясно +27.9 +14.5 44 +30 +38 жарко 1027.4 1016.2
15 13.09 ЮЗ 2 10 км ясно +28.0 +13.5 41 +30 +34 жарко 1027.2 1016.0
16 13.09 Ю 1 10 км ясно +27.6 +15.0 46 +30 +32 жарко 1026.6 1015.4
17 13.09 ЮЗ 1 10 км ясно +27.2 +13.9 44 +29 +30 жарко 1026.4 1015.2
18 13.09 ЮЗ 1 10 км ясно +25.0 +13.9 50 +27 +27 жарко 1026.5 1015.2 +28.3
19 13.09 З 1 10 км ясно +22.0 +16.7 72 +26 +26 душно 1026.8 1015.4
20 13.09 СВ 1 10 км ясно +21.0 +17.0 78 +26 +26 душно 1027.3 1015.8
21 13.09 С 1 10 км ясно +20.2 +16.7 80 +24 +24 комфорт 1027.6 1016.1
22 13.09 С 1 10 км ясно +20.0 +16.8 82 +24 +24 комфорт 1028.1 1016.6
23 13.09 С 1 10 км ясно +19.9 +16.7 82 +24 +24 комфорт 1028.3 1016.8
00 14.09 СВ 2 10 км ясно +18.9 +16.5 86 +21 +21 комфорт 1028.2 1016.7
01 14.09 СВ 2 10 км ясно +18.8 +16.4 86 +21 +21 комфорт 1028.2 1016.7
02 14.09 СВ 2 10 км ясно +18.0 +16.0 88 +19 +19 1027.6 1016.0
03 14.09 СВ 2 10 км ясно +17.8 +15.8 88 +18 +18 1027.4 1015.8
04 14.09 С 2 10 км ясно +17.6 +15.6 88 +18 +18 1027.4 1015.8
05 14.09 С 2 6000 м дымка ясно +17.2 +15.2 88 +18 +18 1027.8 1016.2
06 14.09 СВ 1 6000 м дымка ясно +18.2 +16.2 88 +20 +21 1028.0 1016.4 +17.4
07 14.09 СВ 1 8000 м дымка ясно +20.2 +17.0 82 +25 +28 комфорт 1028.1 1016.6
08 14.09 В 2 10 км ясно +23.7 +17.9 70 +28 +33 душно 1027.9 1016.6
09 14.09 ЮВ 3 10 км ясно +24.5 +16.2 60 +28 +35 душно 1028.4 1017.1
10 14.09 ЮВ 2 10 км ясно +26.0 +16.0 54 +29 +39 душно 1028.5 1017.2
11 14.09 ЮВ 2 10 км ясно +26.8 +16.7 54 +30 +42 душно 1028.4 1017.2
12 14.09 Ю 2 10 км ясно +27.0 +14.7 47 +30 +42 душно 1027.8 1016.6
13 14.09 В 2 10 км ясно +27.0 +14.7 47 +30 +40 душно 1027.1 1015.9
14 14.09 ЮВ 3 10 км ясно +27.9 +14.9 45 +30 +37 жарко 1026.3 1015.1
15 14.09 ЮВ 3 10 км ясно +28.0 +15.0 45 +31 +34 душно 1025.6 1014.4
16 14.09 ЮВ 2 10 км ясно +27.4 +15.4 48 +30 +32 жарко 1025.3 1014.1
17 14.09 ЮВ 2 10 км ясно +26.1 +16.1 54 +29 +29 жарко 1025.2 1014.0
18 14.09 ЮВ 2 10 км ясно +24.0 +17.5 67 +28 +28 душно 1025.3 1014.0 +28.1
19 14.09 СВ 3 10 км ясно +22.4 +16.9 71 +27 +27 душно 1025.8 1014.4
20 14.09 СВ 2 10 км ясно +21.8 +17.8 78 +26 +26 душно 1026.0 1014.6
21 14.09 СВ 2 10 км ясно +21.4 +18.0 81 +26 +26 душно 1026.2 1014.8
22 14.09 СВ 2 10 км ясно +20.9 +18.1 84 +26 +26 душно 1026.2 1014.8
23 14.09 СВ 1 10 км ясно +20.8 +18.0 84 +26 +26 душно 1026.2 1014.8
00 15.09 СВ 1 10 км ясно +20.0 +17.4 85 +24 +24 комфорт 1026.1 1014.6
01 15.09 СВ 1 10 км ясно +20.0 +17.4 85 +24 +24 комфорт 1026.1 1014.6
02 15.09 С 2 10 км ясно +19.9 +18.0 89 +24 +24 комфорт 1025.7 1014.2
03 15.09 С 1 10 км ясно +19.9 +18.0 89 +24 +24 комфорт 1025.7 1014.2
04 15.09 С 2 10 км ясно +19.0 +17.2 89 +21 +21 комфорт 1025.3 1013.8
05 15.09 СВ 2 10 км 5/0
[Ac trans]
+20.0 +18.1 89 +24 +24 комфорт 1025.5 1014.0
06 15.09 СВ 1 10 км 8/0 1500 м
[Ac und]
+21.0 +18.9 88 +27 +27 душно 1025.4 1014.0 +19.0
07 15.09 ЮВ 2 10 км 9/0
[Ac trans]
+21.8 +18.8 83 +27 +28 душно 1025.2 1013.8
08 15.09 ЮВ 2 10 км 9/0
[Ac trans]
+22.0 +18.6 81 +27 +29 душно 1025.4 1014.0
09 15.09 ЮЗ 1 8000 м дымка 9/0 1500 м
[Ac trans]
+22.4 +18.4 78 +28 +32 душно 1025.6 1014.2
10 15.09 З 1 8000 м дымка 9/0
[Ac trans]
+23.8 +18.7 73 +28 +34 душно 1025.4 1014.1
11 15.09 ЮЗ 1 8000 м дымка 8/5 1500 м
[Sc Ci fib]
+25.0 +18.5 67 +30 +35 душно 1025.1 1013.8
12 15.09 ЮЗ 2 8000 м дымка 6/0
[Ci fib]
+25.2 +17.4 62 +29 +40 душно 1024.3 1013.0
13 15.09 З 3 10 км 5/0
[Ci fib]
+26.8 +16.1 52 +30 +38 душно 1023.2 1012.0
14 15.09 З 2 10 км 4/0
[Ci fib]
+27.2 +16.2 51 +31 +37 душно 1022.3 1011.1
15 15.09 З 2 10 км 3/0
[Ci fib]
+27.2 +16.2 51 +31 +34 душно 1021.3 1010.1
16 15.09 З 1 10 км ясно +27.0 +15.7 50 +30 +32 душно 1021.0 1009.8
17 15.09 Ю 1 10 км ясно +26.4 +15.8 52 +30 +30 душно 1020.8 1009.6
18 15.09 ЮЗ 1 10 км ясно +24.4 +16.9 63 +28 +28 душно 1020.8 1009.5 +27.5
19 15.09 С 1 10 км ясно +23.1 +18.7 76 +29 +29 очень
душно
1021.5 1010.2
20 15.09 СВ 1 10 км ясно +22.1 +18.9 82 +27 +27 душно 1021.7 1010.3
21 15.09 С 2 10 км ясно +21.0 +18.0 83 +26 +26 душно 1021.7 1010.3
22 15.09 ЮВ 1 10 км ясно +20.6 +18.5 88 +26 +26 душно 1021.7 1010.3
23 15.09 СВ 1 10 км 5/5 1500 м
[Sc]
+20.0 +17.8 87 +24 +24 комфорт 1021.3 1009.9
00 16.09 СВ 1 10 км ясно +20.0 +18.0 88 +24 +24 комфорт 1021.0 1009.6
01 16.09 С 2 10 км ясно +20.0 +18.1 89 +24 +24 комфорт 1021.0 1009.6
02 16.09 В 1 10 км 5/5 1260 м
[Sc]
+20.0 +18.0 88 +25 +25 комфорт 1021.0 1009.6
03 16.09 С 1 6000 м дымка 8/8 1200 м
[Sc]
+20.1 +18.2 89 +24 +24 комфорт 1020.4 1009.0
04 16.09 С 1 6000 м дымка 8/8 1200 м
[Sc]
+20.7 +18.3 86 +26 +26 душно 1020.4 1009.0
05 16.09 СВ 2 5000 м дымка 6/6 1500 м
[Sc]
+19.8 +18.1 90 +23 +23 комфорт 1019.7 1008.3
06 16.09 С 1 5000 м дымка 5/5 1500 м
[Sc]
+19.3 +17.3 88 +22 +23 комфорт 1019.3 1007.9 +19.0
07 16.09 С 1 6000 м дымка ясно +21.2 +18.6 85 +26 +28 душно 1019.3 1007.9
08 16.09 Ю 1 6000 м ясно +23.4 +18.9 76 +30 +35 очень
душно
1019.2 1007.9
09 16.09 ЮЗ 1 8000 м дымка ясно +25.2 +18.6 67 +30 +39 душно 1020.2 1009.0
10 16.09 ЮЗ 2 8000 м дымка ясно +26.0 +15.4 52 +29 +40 душно 1020.0 1008.8
11 16.09 З 2 8000 м дымка ясно +27.2 +15.9 50 +30 +41 душно 1018.9 1007.8
12 16.09 ЮЗ 2 8000 м ясно +27.6 +16.3 50 +31 +42 душно 1017.7 1006.6
13 16.09 З 2 8000 м дымка ясно +28.0 +18.7 57 +33 +42 очень
душно
1017.1 1006.0
14 16.09 ЮЗ 2 8000 м дымка ясно +28.2 +18.6 56 +33 +40 очень
душно
1016.1 1005.0
15 16.09 З 2 8000 м дымка ясно +28.4 +18.5 55 +33 +37 очень
душно
1015.1 1004.0
16 16.09 ЮЗ 2 8000 м дымка ясно +28.0 +18.1 55 +33 +34 очень
душно
1014.9 1003.8
17 16.09 ЮЗ 1 8000 м дымка ясно +27.2 +18.2 58 +32 +32 очень
душно
1014.9 1003.8
18 16.09 ЮЗ 1 4000 м дымка ясно +25.2 +18.4 66 +30 +30 душно 1015.0 1003.8 +28.6
19 16.09 штиль 0 6000 м дымка ясно +24.0 +19.9 78 +29 +29 душно 1015.7 1004.5
20 16.09 СВ 1 6000 м дымка ясно +23.0 +19.8 82 +30 +30 очень
душно
1016.0 1004.7
21 16.09 С 1 6000 м дымка ясно +22.4 +19.8 85 +28 +28 душно 1016.1 1004.8
22 16.09 СВ 2 6000 м дымка ясно +22.2 +19.9 87 +28 +28 душно 1016.2 1004.9
23 16.09 СВ 1 6000 м дымка ясно +21.2 +19.0 87 +26 +26 душно 1015.8 1004.4
00 17.09 С 1 6000 м дымка ясно +21.2 +18.8 86 +26 +26 душно 1015.7 1004.3
01 17.09 СВ 1 6000 м дымка ясно +20.2 +18.3 89 +25 +25 комфорт 1015.5 1004.1
02 17.09 СВ 2 5000 м дымка ясно +20.0 +18.3 90 +24 +24 комфорт 1015.2 1003.8
03 17.09 С 1 5000 м дымка ясно +20.2 +18.5 90 +25 +25 комфорт 1015.0 1003.6
04 17.09 СЗ 1 5000 м дымка ясно +20.2 +18.3 89 +25 +25 комфорт 1014.9 1003.5
05 17.09 З 1 2000 м дымка 5/5 1200 м
[Sc]
+19.6 +17.7 89 +24 +24 комфорт 1014.8 1003.4
06 17.09 З 1 2500 м дымка 8/8 1200 м
[Sc]
+20.2 +18.3 89 +25 +25 комфорт 1015.0 1003.6 +19.5
07 17.09 З 1 2500 м дымка 8/8 1200 м
[Sc]
+20.6 +18.5 88 +26 +27 душно 1015.0 1003.6
08 17.09 ЮЗ 1 3600 м дымка 6/3 1350 м
[Sc Ac trans]
+22.0 +18.4 80 +27 +30 душно 1015.0 1003.7
09 17.09 З 3 6000 м 5/1 1050 м
[Cu hum Ac trans]
+24.0 +17.0 65 +28 +32 душно 1015.0 1003.7
10 17.09 З 2 10 км 5/3 1200 м
[Cu hum Ac trans]
+25.3 +16.2 57 +29 +35 душно 1014.8 1003.6
11 17.09 ЮЗ 3 10 км 4/0
[Ac trans Ci fib]
+26.0 +16.0 54 +29 +37 душно 1013.9 1002.8
12 17.09 З 2 10 км 4/0
[Ac trans Ci fib]
+27.0 +16.6 53 +31 +39 душно 1013.4 1002.3
13 17.09 ЮЗ 2 10 км 4/0
[Ac trans Ci fib]
+27.8 +17.0 52 +32 +39 душно 1012.9 1001.9
14 17.09 ЮЗ 2 10 км 3/0
[Ac trans]
+28.0 +17.2 52 +32 +37 душно 1012.2 1001.2
15 17.09 З 2 10 км 3/0
[Ac trans]
+28.4 +17.3 51 +32 +36 душно 1011.9 1000.9
16 17.09 Ю 2 10 км ясно +28.8 +17.4 50 +33 +34 очень
душно
1011.6 1000.6
17 17.09 Ю 1 10 км ясно +28.2 +16.8 50 +32 +32 душно 1011.5 1000.5
18 17.09 ЮВ 2 10 км ясно +27.0 +19.6 64 +33 +33 очень
душно
1011.6 1000.5 +29.0
19 17.09 В 3 10 км ясно +23.4 +18.9 76 +30 +30 очень
душно
1011.7 1000.5
20 17.09 В 2 10 км ясно +22.8 +18.8 78 +29 +29 очень
душно
1012.3 1001.0
21 17.09 СЗ 1 10 км ясно +22.4 +19.0 81 +28 +28 душно 1012.7 1001.4
22 17.09 В 1 10 км ясно +21.4 +18.8 85 +26 +26 душно 1013.1 1001.8
23 17.09 СВ 1 10 км ясно +21.2 +18.6 85 +26 +26 душно 1013.1 1001.8
00 18.09 СВ 1 10 км ясно +21.0 +18.6 86 +27 +27 душно 1013.1 1001.8
01 18.09 С 1 10 км ясно +21.0 +18.9 88 +27 +27 душно 1013.1 1001.8
02 18.09 С 1 10 км ясно +21.0 +18.9 88 +27 +27 душно 1013.1 1001.8
03 18.09 З 1 6000 м дымка 4/4 1500 м
[Cu med, cong]
+21.2 +19.0 87 +26 +26 душно 1013.1 1001.8
04 18.09 СЗ 1 6000 м дымка 4/4 1500 м
[Cu med, cong]
+21.2 +18.8 86 +26 +26 душно 1013.1 1001.8
05 18.09 СЗ 1 2500 м дымка 4/4 1200 м
[Cu med, cong]
+21.0 +19.3 90 +27 +27 душно 1013.3 1002.0
06 18.09 В 1 3200 м дымка 6/4 1350 м
[Cu med, cong Ci fib]
+20.6 +18.7 89 +26 +26 душно 1014.2 1002.8 +20.6
07 18.09 Ю 1 2500 м дымка 8/8 300 м
[Sc]
+22.2 +20.1 88 +28 +29 душно 1014.3 1003.0
08 18.09 Ю 1 3200 м дымка 6/6 300 м
[Sc]
+23.2 +19.8 81 +30 +32 очень
душно
1014.5 1003.2
09 18.09 З 1 3200 м дымка 8/8 300 м
[Sc]
+23.9 +19.6 77 +29 +31 душно 1014.5 1003.3
10 18.09 ЮЗ 1 3200 м дымка 8/8 300 м
[Sc]
+24.0 +19.7 77 +29 +32 душно 1014.6 1003.4
11 18.09 З 1 3200 м дымка 6/6 600 м
[Sc]
+25.2 +19.4 70 +30 +36 душно 1014.6 1003.4
12 18.09 ЮЗ 1 3200 м дымка 6/6 600 м
[Sc]
+26.0 +19.9 69 +32 +37 очень
душно
1014.4 1003.2
13 18.09 СЗ 2 3200 м дымка 8/5 600 м
[Sc Ac trans]
+26.2 +19.8 68 +32 +35 очень
душно
1013.9 1002.8
14 18.09 СЗ 2 2500 м слаб. дождь 9/5 300 м
[Cb calv Ac trans]
+26.0 +20.1 70 +32 +34 очень
душно
1014.0 1002.8
15 18.09 ЮВ 4 3000 м в посл. час дождь 9/5 300 м
[Cb calv Ac trans]
+23.4 +20.0 81 +30 +31 очень
душно
1013.6 1002.4
16 18.09 В 6 4500 м гроза, ливневой дождь 9/5 300 м
[Cb calv Ac trans]
+22.2 +19.9 87 +28 +28 душно 1014.2 1002.9

 

Местоположение метеостанции Брешиа (Италия): широта 45.42 долгота 10.28 высота над уровнем моря 97 м.

В архиве по умолчанию представлена погода в Брешиа за последнюю неделю. Архивные данные за месяц целиком и за предыдущие месяцы, начиная с января 2011 года, Вы можете получить, выбрав интересующий диапазон дат из раскрывающегося списка и нажав кнопку "Ввод!".


*Определитесь, кто Вы:
робот инопланетянин человек

Внимание! Время в таблицах - всемирное. Для получения местного времени необходимо прибавить поправку, которая равна 1 ч.

Смотрите также архив погоды в соседних городах и на ближайших метеорологических станциях:

Погода в Дезенцано (Италия) (35 км)
Погода в Бергамо (Италия) (53 км)
Погода в Пьяченце (Италия) (70 км)
Погода в Милане (Италия) (78 км)
Погода в Тренто (Италия) (93 км)
Погода на Паганелле (Италия) (100 км)
Погода в Роббие (Швейцария) (105 км)
Погода на Монте-Дженеросо (Швейцария) (113 км)
Погода в Стабио (Швейцария) (115 км)
Погода на Пиц Корваче (Швейцария) (117 км)

Пояснения к столбцам:

Ветер - указаны скорость ветра в м/с - средняя за 10 мин, порывы в срок и между сроками (в фигурных скобках) и направление, откуда дует ветер: С - северный, СВ - северо-восточный, В - восточный, ЮВ - юго-восточный, Ю - южный, ЮЗ - юго-западный, З - западный, СЗ - северо-западный.
Видимость - горизонтальная дальность видимости в метрах или километрах. При видимости от 1 до 10 км при отсутствии осадков обычно наблюдается дымка, при ухудшении видимости до 1 км и менее - туман. В сухую погоду видимость может ухудшаться дымом, пылью или мглою.
Явления - указаны атмосферные явления, наблюдавшиеся в срок или в последний час перед сроком; фигурными скобками обозначены явления, наблюдавшиеся между сроками (за 1-3 часа до срока); квадратными скобками обозначены град или гололедные отложения с указанием их диаметра в мм.
Облачность - указаны через наклонную черту общая и нижняя облачность в баллах и высота нижней границы облаков в метрах; квадратными скобками обозначены формы облаков: Ci - перистые, Cs - перисто-слоистые, Cc - перисто-кучевые, Ac - высококучевые, As - высокослоистые, Sc - слоисто-кучевые, Ns - слоисто-дождевые, Cu - кучевые, Cb - кучево-дождевые. Подробнее классификацию облаков см. в Атласе облаков (PDF).
T - Температура воздуха - температура, измеренная на высоте 2 м над землей.
Td - Температура точки росы - температура, при понижении до которой содержащийся в воздухе водяной пар достигнет насыщения.
f - Относительная влажность воздуха - влажноcть воздуха, измеренная на высоте 2 м над землей.
Te - Эффективная температура - температура, которую ощущает одетый по сезону человек в тени. Характеристика душности погоды. При расчете учитывается влияние влажности воздуха и скорости ветра на теплоощущения человека.
Tes - Эффективная температура на солнце - температура, которую ощущает человек, с поправкой на солнечный нагрев. Характеристика знойности погоды. Зависит от высоты солнца над горизонтом, облачности и скорости ветра. Ночью, в пасмурную погоду, а также при ветре 12 м/с и более поправка равна нулю.
P - Атмосферное давление - приведенное к уровню моря атмосферное давление.
Po - Атмосферное давление - измеренное на уровне метеостанции атмосферное давление.
Tmin - Минимальная температура - минимум температуры воздуха на высоте 2 м над землей.
Tmax - Максимальная температура - максимум температуры воздуха на высоте 2 м над землей.
R - Количество осадков - Количество выпавших осадков за период времени, мм. При наведении курсора мыши на число - период времени, за который выпало указанное количество осадков.
R24 - Количество осадков - Количество выпавших осадков за 24 часа, мм.
S - Снежный покров - Высота снежного покрова, см. При наведении курсора мыши на число - состояние снежного покрова и степень покрытия местности в баллах.